• In Uzbekistan
  • List of Countries
  • For 7 days
  • Water Temperature
  • Satellite Maps
  • Weather Map
  • Weather Widgets
  • user-avatar
    Login

    Hourly Weather Zahla

    Today, 22 September, Saturday

    Time Temperature Precipitation Wind Pressure Humidity
    00:00 +22°C° 0 mm 1 mps 674 mmHg 79%
    01:00 +22°C° 0 mm 1 mps 674 mmHg 80%
    02:00 +22°C° 0 mm 1 mps 674 mmHg 82%
    03:00 +21°C° 0 mm 1 mps 674 mmHg 83%
    04:00 +21°C° 0 mm 1 mps 674 mmHg 84%
    05:00 +20°C° 0 mm 1 mps 674 mmHg 86%
    06:00 +22°C° 0 mm 1 mps 675 mmHg 77%
    07:00 +23°C° 0 mm 1 mps 675 mmHg 68%
    08:00 +24°C° 0 mm 1 mps 675 mmHg 59%
    09:00 +26°C° 0 mm 1 mps 676 mmHg 52%
    10:00 +27°C° 0 mm 1 mps 676 mmHg 45%
    11:00 +28°C° 0 mm 2 mps 676 mmHg 37%
    12:00 +29°C° 0 mm 2 mps 676 mmHg 36%
    13:00 +29°C° 0 mm 2 mps 676 mmHg 36%
    14:00 +29°C° 0 mm 2 mps 676 mmHg 35%
    15:00 +29°C° 0 mm 2 mps 675 mmHg 38%
    16:00 +28°C° 0 mm 2 mps 675 mmHg 41%
    17:00 +28°C° 0 mm 2 mps 675 mmHg 43%
    18:00 +27°C° 0 mm 2 mps 675 mmHg 48%
    19:00 +26°C° 0 mm 1 mps 675 mmHg 53%
    20:00 +25°C° 0 mm 1 mps 675 mmHg 58%
    21:00 +24°C° 0 mm 1 mps 675 mmHg 60%
    22:00 +23°C° 0 mm 1 mps 675 mmHg 61%
    23:00 +23°C° 0 mm 1 mps 675 mmHg 63%

    Tomorrow, 23 September, Sunday

    Time Temperature Precipitation Wind Pressure Humidity
    00:00 +22°C° 0 mm 1 mps 675 mmHg 64%
    01:00 +22°C° 0 mm 1 mps 675 mmHg 64%
    02:00 +21°C° 0 mm 1 mps 675 mmHg 65%
    03:00 +21°C° 0 mm 1 mps 675 mmHg 65%
    04:00 +20°C° 0 mm 1 mps 675 mmHg 65%
    05:00 +20°C° 0 mm 1 mps 675 mmHg 65%
    06:00 +22°C° 0 mm 1 mps 675 mmHg 56%
    07:00 +23°C° 0 mm 1 mps 676 mmHg 48%
    08:00 +25°C° 0 mm 1 mps 677 mmHg 39%
    09:00 +26°C° 0 mm 1 mps 677 mmHg 34%
    10:00 +27°C° 0 mm 1 mps 677 mmHg 29%
    11:00 +29°C° 0 mm 2 mps 677 mmHg 24%
    12:00 +29°C° 0 mm 2 mps 677 mmHg 24%
    13:00 +29°C° 0 mm 2 mps 677 mmHg 25%
    14:00 +30°C° 0 mm 2 mps 676 mmHg 25%
    15:00 +29°C° 0 mm 2 mps 676 mmHg 29%
    16:00 +29°C° 0 mm 2 mps 676 mmHg 32%
    17:00 +28°C° 0 mm 2 mps 676 mmHg 36%
    18:00 +27°C° 0 mm 1 mps 676 mmHg 41%
    19:00 +26°C° 0 mm 1 mps 676 mmHg 45%
    20:00 +25°C° 0 mm 1 mps 676 mmHg 50%
    21:00 +24°C° 0 mm 1 mps 676 mmHg 50%
    22:00 +24°C° 0 mm 1 mps 676 mmHg 50%
    23:00 +23°C° 0 mm 1 mps 676 mmHg 51%

    Day after tomorrow, 24 September, Monday

    Time Temperature Precipitation Wind Pressure Humidity
    00:00 +23°C° 0 mm 1 mps 676 mmHg 51%
    01:00 +22°C° 0 mm 1 mps 675 mmHg 51%
    02:00 +22°C° 0 mm 1 mps 675 mmHg 51%
    03:00 +21°C° 0 mm 1 mps 675 mmHg 50%
    04:00 +21°C° 0 mm 1 mps 675 mmHg 49%
    05:00 +21°C° 0 mm 1 mps 675 mmHg 48%
    06:00 +22°C° 0 mm 1 mps 675 mmHg 42%
    07:00 +24°C° 0 mm 1 mps 676 mmHg 36%
    08:00 +26°C° 0 mm 1 mps 677 mmHg 30%
    09:00 +27°C° 0 mm 1 mps 677 mmHg 27%
    10:00 +29°C° 0 mm 2 mps 677 mmHg 24%
    11:00 +30°C° 0 mm 2 mps 677 mmHg 22%
    12:00 +30°C° 0 mm 2 mps 676 mmHg 22%
    13:00 +30°C° 0 mm 2 mps 676 mmHg 23%
    14:00 +31°C° 0 mm 2 mps 676 mmHg 24%
    15:00 +30°C° 0 mm 2 mps 675 mmHg 26%
    16:00 +29°C° 0 mm 2 mps 675 mmHg 29%
    17:00 +29°C° 0 mm 1 mps 675 mmHg 31%
    18:00 +28°C° 0 mm 1 mps 675 mmHg 35%
    19:00 +26°C° 0 mm 1 mps 675 mmHg 38%
    20:00 +25°C° 0 mm 1 mps 675 mmHg 42%
    21:00 +25°C° 0 mm 1 mps 675 mmHg 42%
    22:00 +24°C° 0 mm 1 mps 674 mmHg 41%
    23:00 +24°C° 0 mm 1 mps 674 mmHg 40%

    25 September, Tuesday

    Time Temperature Precipitation Wind Pressure Humidity
    00:00 +23°C° 0 mm 1 mps 674 mmHg 41%
    01:00 +22°C° 0 mm 1 mps 674 mmHg 42%
    02:00 +22°C° 0 mm 1 mps 674 mmHg 44%
    03:00 +19°C° 0 mm 0 mps 673 mmHg 44%
    04:00 +19°C° 0 mm 0 mps 673 mmHg 45%
    05:00 +18°C° 0 mm 0 mps 673 mmHg 46%
    06:00 +21°C° 0 mm 0 mps 674 mmHg 39%
    07:00 +25°C° 0 mm 1 mps 675 mmHg 33%
    08:00 +27°C° 0 mm 1 mps 675 mmHg 26%
    09:00 +28°C° 0 mm 1 mps 675 mmHg 25%
    10:00 +29°C° 0 mm 2 mps 675 mmHg 24%
    11:00 +30°C° 0 mm 2 mps 675 mmHg 22%
    12:00 +30°C° 0 mm 2 mps 675 mmHg 24%
    13:00 +30°C° 0 mm 2 mps 674 mmHg 25%
    14:00 +31°C° 0 mm 2 mps 674 mmHg 27%
    15:00 +30°C° 0 mm 2 mps 673 mmHg 30%
    16:00 +29°C° 0 mm 2 mps 673 mmHg 34%
    17:00 +28°C° 0 mm 2 mps 673 mmHg 38%
    18:00 +27°C° 0 mm 1 mps 673 mmHg 43%
    19:00 +26°C° 0 mm 1 mps 673 mmHg 49%
    20:00 +25°C° 0 mm 1 mps 673 mmHg 55%
    21:00 +24°C° 0 mm 1 mps 673 mmHg 58%
    22:00 +24°C° 0 mm 1 mps 673 mmHg 61%
    23:00 +23°C° 0 mm 1 mps 673 mmHg 64%

    26 September, Wednesday

    Time Temperature Precipitation Wind Pressure Humidity
    00:00 +22°C° 0 mm 1 mps 672 mmHg 67%
    01:00 +22°C° 0 mm 1 mps 672 mmHg 69%
    02:00 +21°C° 0 mm 1 mps 672 mmHg 72%
    03:00 +21°C° 0 mm 1 mps 672 mmHg 73%
    04:00 +20°C° 0 mm 1 mps 672 mmHg 74%
    05:00 +20°C° 0 mm 1 mps 672 mmHg 75%
    06:00 +21°C° 0 mm 1 mps 672 mmHg 66%
    07:00 +23°C° 0 mm 2 mps 673 mmHg 57%
    08:00 +24°C° 0 mm 2 mps 673 mmHg 48%
    09:00 +26°C° 0 mm 2 mps 673 mmHg 41%
    10:00 +27°C° 0 mm 2 mps 673 mmHg 35%
    11:00 +28°C° 0 mm 3 mps 673 mmHg 28%
    12:00 +28°C° 0 mm 3 mps 673 mmHg 29%
    13:00 +28°C° 0 mm 3 mps 673 mmHg 30%
    14:00 +29°C° 0 mm 3 mps 672 mmHg 31%
    15:00 +28°C° 0 mm 3 mps 672 mmHg 35%
    16:00 +27°C° 0 mm 3 mps 672 mmHg 39%
    17:00 +26°C° 0 mm 3 mps 672 mmHg 43%
    18:00 +25°C° 0 mm 3 mps 672 mmHg 49%
    19:00 +24°C° 0 mm 2 mps 672 mmHg 55%
    20:00 +23°C° 0 mm 2 mps 672 mmHg 61%
    21:00 +21°C° 0 mm 2 mps 672 mmHg 62%
    22:00 +20°C° 0 mm 2 mps 671 mmHg 64%
    23:00 +20°C° 0 mm 2 mps 671 mmHg 65%

    27 September, Thursday

    Time Temperature Precipitation Wind Pressure Humidity
    00:00 +19°C° 0 mm 2 mps 671 mmHg 63%
    01:00 +19°C° 0 mm 2 mps 671 mmHg 61%
    02:00 +18°C° 0 mm 2 mps 670 mmHg 59%
    03:00 +18°C° 0 mm 3 mps 670 mmHg 59%
    04:00 +17°C° 0 mm 3 mps 670 mmHg 59%
    05:00 +17°C° 0 mm 3 mps 670 mmHg 58%
    06:00 +18°C° 0 mm 3 mps 670 mmHg 53%
    07:00 +20°C° 0 mm 4 mps 671 mmHg 49%
    08:00 +21°C° 0 mm 4 mps 671 mmHg 44%
    09:00 +22°C° 0 mm 5 mps 671 mmHg 43%
    10:00 +23°C° 0 mm 6 mps 671 mmHg 41%
    11:00 +24°C° 0 mm 7 mps 671 mmHg 40%
    12:00 +24°C° 0 mm 7 mps 671 mmHg 43%
    13:00 +24°C° 0 mm 7 mps 670 mmHg 45%
    14:00 +24°C° 0 mm 7 mps 670 mmHg 47%
    15:00 +23°C° 0.1 mm 7 mps 670 mmHg 52%
    16:00 +22°C° 0.1 mm 6 mps 670 mmHg 58%
    17:00 +21°C° 0.1 mm 6 mps 670 mmHg 63%
    18:00 +21°C° 0 mm 6 mps 670 mmHg 67%
    19:00 +20°C° 0 mm 6 mps 670 mmHg 71%
    20:00 +20°C° 0 mm 5 mps 670 mmHg 75%
    21:00 +19°C° 0.1 mm 6 mps 670 mmHg 76%
    22:00 +19°C° 0.1 mm 6 mps 670 mmHg 77%
    23:00 +19°C° 0.1 mm 6 mps 670 mmHg 79%
    Show more